Weather in Kalkaman

Kazakhstan     51°57′11″N   76°01′32″E
temp.,
°C
wind,
m/s
gust,
m/s
humid.,
%
clouds,
%
prec.,
mm/h
press.,
hPa
HPBL,
m
16 may, sun
sun1600:00+19wsw464257 0.0 102083
03:00+17wsw464910 0.0 102089
06:00+17wsw4552100 0.0 101974
09:00+23w564084 0.0 1019514
12:00+28w56281 0.0 10171560
15:00+30wnw782417 0.0 10153091
18:00+30nw782290 0.0 10143305
21:00+22s1148100 0.5 101518
17 may, mon
mon1700:00+20nw4561100 1.7 101796
03:00+18nw457495 0.8 101779
06:00+19w477080 1.3 1018173
09:00+24nw574714 0.0 1018703
12:00+29nnw68325 0.0 10171987
15:00+31nnw79225 0.0 10163716
18:00+21wnw81156100 0.4 1018229
21:00+25wsw453734 0.1 101664
18 may, tue
tue1800:00+22sw574422 0.1 101598
03:00+20w334451 0.0 101429
06:00+19w510538 0.0 1013204
09:00+27wnw683364 0.0 1013502
12:00+31wnw792157 0.0 10123298
15:00+30nw7923100 0.0 10103405
18:00+30wnw101125100 0.2 10082707
21:00+20sw5953100 1.1 1008253
19 may, wed
wed1900:00+18ssw346336 1.1 100860
03:00+18w5126710 0.0 1007330
06:00+17wnw6127133 0.0 1007426
09:00+20nw913525 0.0 10071416
12:00+19nnw11125054 0.1 10091597
15:00+17n9117697 2.0 10091008
18:00+13n7127480 3.3 10131084
21:00+13nnw7125730 0.0 1015969
20 may, thu
thu2000:00+11n486251 0.0 1016259
03:00+9nnw510705 0.0 1018324
06:00+8n611630 0.0 1021600
09:00+10n911392 0.0 10231358
12:00+12n911275 0.0 10251954
15:00+15n9122545 0.0 10252351
18:00+14nne810235 0.0 10262131
21:00+10ne47345 0.0 1029187